Regional Weather Roundup
Issued by NWS Newport/Morehead, NC

Current Version | Previous Version | Graphics & Text | Print | Product List | Glossary Off
Versions: 1 2 3 4 5 6 7 8 9 10 11 12 13 14 15 16 17 18 19 20 21 22 23 24 25 26 27 28 29 30 31 32 33 34 35 36 37 38 39 40 41 42 43 44 45 46 47 48 49 50

000
ASUS42 KMHX 270426
RWRMHX
WEATHER ROUNDUP FOR EASTERN NORTH CAROLINA
NATIONAL WEATHER SERVICE NEWPORT/MOREHEAD CITY NC
1200 AM EDT FRI APR 27 2018

NOTE: "FAIR" INDICATES FEW OR NO CLOUDS BELOW 12,000 FEET
WITH NO SIGNIFICANT WEATHER AND/OR OBSTRUCTIONS TO VISIBILITY

NCZ015>017-031-032-045>047-102-103-270500-
NORTH COAST

CITY           SKY/WX    TMP DP  RH WIND       PRES   REMARKS
EDENTON        FAIR      63  60  91 SE3       29.84F
ELIZABETH CITY FAIR      59  57  93 E3        29.85F
KITTY HAWK     FAIR      58  56  93 CALM      29.84F
MANTEO         FAIR      62  60  92 SE6       29.86F

$$

NCZ045>047-081-094-103-104-270500-
CENTRAL COAST

CITY           SKY/WX    TMP DP  RH WIND       PRES   REMARKS
FRISCO         FAIR      68  65  90 S5        29.86F

$$

NCZ095-097-098-100-101-270500-
SOUTHERN COAST

CITY           SKY/WX    TMP DP  RH WIND       PRES   REMARKS
BEAUFORT       FAIR      66  62  87 SE6       29.84F
CEDAR ISLAND   NOT AVBL
JACKSONVILLE   FAIR      63  62  97 S5        29.83F
PINEY ISLAND   NOT AVBL
WILMINGTON     FAIR      63  56  78 S6        29.84S


$$

NCZ011>013-027>030-043-044-078>080-089-090>093-098-270500-
COASTAL PLAIN

CITY           SKY/WX    TMP DP  RH WIND       PRES   REMARKS
AHOSKIE        FAIR      61  60  98 SE5       29.82S
CLINTON        FAIR      63  59  88 S3        29.83S
ELIZABETHTOWN  FAIR      62  57  84 MISG      29.83S
GOLDSBORO      FAIR      63  56  76 S6        29.80S
GREENVILLE     FAIR      64  55  72 S6        29.85S
HAVELOCK       CLEAR     63  62  97 SE6       29.84F
KENANSVILLE    FAIR      61  55  82 CALM      29.82F
KINSTON        FAIR      64  57  79 S6        29.83S
NEW BERN       FAIR      59  58  96 CALM      29.84F
RICHLANDS      FAIR      61  60  97 S7        29.83F
ROCKY MOUNT    FAIR      64  56  75 S8        29.81R
WASHINGTON     FAIR      64  58  82 CALM      29.82F
WHITEVILLE     FAIR      63  58  86 CALM      29.82F

$$

AMZ130-135-150-152-154-156-158-170-250-252-270-ANZ085-086-088-633-658-670-270500-
MARINE OBSERVATIONS

STATION/POSITION TIME  TEMP    WIND        PRES    WAVE   SWELL
                       AIR SEA DIR/SP/G            HT/PER HT/PER
                 (UTC) (F)     (DEG/KT/KT) (MB)    (FT/S) (FT/S)
CHESAPEAKE LIGHT NOT AVBL
64 E VA BEACH    0350   54 53  100/  8/  8 1012.3    6/ 9   7/ 9
DUCK             0400   57 53  140/  9/ 10 1010.3
2 E DUCK         0400      55                N/A     4/ 9   2/12
OREGON INLET     0400   61 63  110/  4/  5 1010.8
13E OREGON INLT  0348      56                N/A     5/ 9   5/ 9
HATTERAS CG      0400   68 69  180/  4/  6 1010.7
DIAMOND BUOY     0410   74 71  200/ 12/ 14 1011.4
CAPE LOOKOUT     0400          170/  3/  4 1011.0
BEAUFORT LAB     0400   66 66  150/  5/  6 1010.6
30 SE NEW RVR IN 0408   69 67  160/  4/  6 1008.5
30 SE NEW RVR IN 0400      67                N/A     4/ 8   2/11
27 SE WRIGHTSVLE 0408   67 65  210/  4/  6 1010.5
5 SE WRIGHTSVLE  NOT AVBL
225 S CAPE HAT   0410   72 73  170/ 17/ 21 1013.6
41 SE CHARLESTON 0410      70  170/  6/  6 1010.2

$$




USA.gov is the U.S. government's official web portal to all federal, state and local government web resources and services.